Weather History for Elmira, NY

Change the Weather History Date:

Friday, February 15, 2013

  Actual Average Record
Temperature  
Mean Temperature 35 °F -  
Max Temperature 42 °F 33 °F 67 °F (1949)
Min Temperature 28 °F 15 °F -15 °F (1943)
Degree Days  
Heating Degree Days 30    
Moisture  
Dew Point 23 °F    
Average Humidity 59    
Maximum Humidity 70    
Minimum Humidity 41    
Precipitation  
Precipitation 0.00 in - - ()
Sea Level Pressure  
Sea Level Pressure 29.92 in    
Wind  
Wind Speed 9 mph (West)    
Max Wind Speed 21 mph    
Max Gust Speed 30 mph    
Visibility 10 miles    
Events      
Averages and records for this station are not official NWS values.
T = Trace of Precipitation, MM = Missing Value Source: NWS Daily Summary

Daily Weather History Graph

Daily Weather History Graph

Search for Another Location

Airport:

Trip Planner

Search our weather history database for the weather conditions in past years. The results will help you decide how hot, cold, wet, or windy it might be!

Date:

Astronomy

Feb. 15, 2013 Rise Set
Actual Time 7:03 AM EST 5:40 PM EST
Civil Twilight 6:34 AM EST 6:09 PM EST
Nautical Twilight 6:01 AM EST 6:42 PM EST
Astronomical Twilight 5:29 AM EST 7:14 PM EST
Moon 9:31 AM EST (2/15) 11:47 PM EST (2/15)
Length of Visible Light 11h 34m
Length of Day
10h 37m
Waxing Crescent, 30% of the Moon is Illuminated
Feb 15
Waxing Crescent
Feb 17
First Quarter
Feb 25
Full
Mar 4
Last Quarter
Mar 11
New

Hourly Weather History & Observations

Time (EST) Temp. Windchill Dew Point Humidity Pressure Visibility Wind Dir Wind Speed Gust Speed Precip Events Conditions
12:53 AM 37.0 °F 33.3 °F 28.0 °F 70% 29.85 in 10.0 mi WSW 4.6 mph - N/A   Mostly Cloudy
1:53 AM 37.9 °F 34.4 °F 28.9 °F 70% 29.85 in 10.0 mi WSW 4.6 mph - N/A   Overcast
2:44 AM 39.2 °F 34.2 °F 30.2 °F 70% 29.82 in 10.0 mi WSW 6.9 mph - N/A   Overcast
2:53 AM 39.0 °F 33.4 °F 30.0 °F 70% 29.84 in 10.0 mi WSW 8.1 mph - N/A   Overcast
3:10 AM 39.2 °F 33.0 °F 30.2 °F 70% 29.82 in 10.0 mi SW 9.2 mph - N/A   Overcast
3:53 AM 37.9 °F 32.7 °F 28.9 °F 70% 29.83 in 10.0 mi Variable 6.9 mph - N/A   Partly Cloudy
4:53 AM 37.9 °F 30.9 °F 28.0 °F 68% 29.85 in 10.0 mi WSW 10.4 mph - N/A   Scattered Clouds
5:49 AM 37.4 °F 29.8 °F 28.4 °F 70% 29.85 in 10.0 mi West 11.5 mph - N/A   Overcast
5:53 AM 37.9 °F 30.0 °F 28.9 °F 70% 29.87 in 10.0 mi West 12.7 mph - N/A   Overcast
6:21 AM 37.4 °F 28.2 °F 24.8 °F 60% 29.85 in 10.0 mi West 16.1 mph 23.0 mph N/A   Mostly Cloudy
6:53 AM 37.0 °F 26.4 °F 21.9 °F 54% 29.88 in 10.0 mi WSW 20.7 mph 29.9 mph N/A   Partly Cloudy
7:53 AM 37.0 °F 27.4 °F 21.9 °F 54% 29.91 in 10.0 mi WSW 17.3 mph 26.5 mph N/A   Scattered Clouds
8:53 AM 37.9 °F 29.6 °F 21.0 °F 51% 29.93 in 10.0 mi West 13.8 mph 24.2 mph N/A   Overcast
9:53 AM 37.9 °F 29.2 °F 21.0 °F 51% 29.95 in 10.0 mi WSW 15.0 mph 27.6 mph N/A   Scattered Clouds
10:53 AM 39.0 °F 29.3 °F 19.9 °F 46% 29.96 in 10.0 mi WSW 19.6 mph 25.3 mph N/A   Clear
11:53 AM 41.0 °F 32.8 °F 19.9 °F 43% 29.95 in 10.0 mi WSW 16.1 mph 28.8 mph N/A   Scattered Clouds
12:53 PM 42.1 °F 35.2 °F 19.9 °F 41% 29.94 in 10.0 mi West 12.7 mph - N/A   Mostly Cloudy
1:53 PM 42.1 °F 34.5 °F 19.9 °F 41% 29.93 in 10.0 mi West 15.0 mph - N/A   Clear
2:53 PM 41.0 °F 33.5 °F 19.0 °F 41% 29.94 in 10.0 mi West 13.8 mph 19.6 mph N/A   Overcast
3:53 PM 39.9 °F 33.4 °F 19.9 °F 45% 29.94 in 10.0 mi West 10.4 mph 16.1 mph N/A   Scattered Clouds
4:53 PM 39.0 °F 32.8 °F 19.0 °F 45% 29.95 in 10.0 mi WNW 9.2 mph - N/A   Overcast
5:53 PM 37.9 °F 33.5 °F 19.9 °F 48% 29.96 in 10.0 mi West 5.8 mph - N/A   Overcast
6:53 PM 35.1 °F 28.6 °F 24.1 °F 64% 29.99 in 10.0 mi WNW 8.1 mph - N/A   Overcast
7:53 PM 33.1 °F 28.7 °F 24.1 °F 70% 30.01 in 10.0 mi WNW 4.6 mph - N/A   Overcast
8:53 PM 32.0 °F 28.7 °F 21.9 °F 66% 30.02 in 10.0 mi West 3.5 mph - N/A   Mostly Cloudy
9:53 PM 30.0 °F 26.5 °F 21.0 °F 69% 30.02 in 10.0 mi WSW 3.5 mph - N/A   Partly Cloudy
10:53 PM 28.9 °F 22.8 °F 19.0 °F 67% 30.04 in 10.0 mi NW 5.8 mph - N/A   Overcast
11:53 PM 28.0 °F - 16.0 °F 61% 30.03 in 10.0 mi Calm Calm - N/A   Overcast